sat.trackr.live / text

‹ back to catalog

YAOGAN-30 07C

NORAD 45462 · 2020-021C

PAYLOAD ACTIVE UNKNOWN

§ Identity

Operator
Country
PRC
Launch date
2020-03-24
Launch site
XICLF
Launch vehicle
Mass (kg)
RCS (m²)

External: N2YO · Heavens-Above · Gunter

§ Orbital elements

Epoch: 2026-09-20T04:25:57.839808Z

Period
95.81 min
Inclination
34.9970°
Eccentricity
0.0000743
Mean motion
15.03045557 rev/d
Perigee alt
557.0 km
Apogee alt
558.0 km
Semi-major
6,935.6 km
B*
1.3033e-4
RAAN
349.3757°
Arg perigee
173.2913°
Mean anomaly
186.7805°
Rev number
35,471

§ Raw data

YAOGAN-30 07C1 45462U 20021C   26263.18469722  .00001762  00000+0  13033-3 0  99922 45462  34.9970 349.3757 0000743 173.2913 186.7805 15.03045557354713

JSON: /api/v1/satellites/45462 · /tle

For live sub-satellite position, see the globe view (requires WebGL).

§ Visibility from observer

Set your observer location to see the next 7 days of passes ≥ 10°. The values pass through the URL so the page stays shareable.

No JS? Fill the form by hand. The geolocation button needs JavaScript.